QPF
0.00 0.00 0.00 0.00 0.00 0.00 0.00 0.00 0.01 0.01 0.00 0.00 0.00 0.00 0.00 0.00 0.00 0.00 0.00 0.00 0.00 0.01 0.01 0.01 0.01 0.02 0.01 0.01 0.01 0.00 0.00 0.00 0.00 0.00 0.00 0.01 0.00 0.01 0.02 0.02 0.09 0.11 0.01
0.00 0.00 0.00 0.00 0.00 0.00 0.00 0.00 0.01 0.01 0.00 0.00 0.00 0.00 0.00 0.00 0.00 0.00 0.00 0.00 0.00 0.00 0.00 0.00 0.00 0.00 0.01 0.01 0.00 0.00 0.00 0.00 0.00 0.00 0.00 0.00 0.00 0.00 0.00 0.01 0.07 0.12 0.01
0.00 0.00 0.00 0.00 0.00 0.00 0.00 0.00 0.00 0.00 0.00 0.00 0.00 0.00 0.00 0.00 0.00 0.00 0.00 0.00 0.00 0.00 0.00 0.00 0.00 0.00 0.00 0.00 0.00 0.00 0.00 0.00 0.00 0.00 0.00 0.01 0.01 0.00 0.00 0.00 0.01 0.01 0.00
0.00 0.00 0.00 0.00 0.00 0.00 0.00 0.00 0.00 0.00 0.00 0.00 0.00 0.00 0.00 0.00 0.00 0.00 0.00 0.00 0.00 0.00 0.00 0.00 0.00 0.00 0.00 0.00 0.00 0.00 0.00 0.00 0.00 0.00 0.01 0.08 0.05 0.00 0.00 0.00 0.00 0.00 0.00
0.00 0.00 0.00 0.00 0.00 0.00 0.00 0.00 0.00 0.00 0.00 0.00 0.00 0.00 0.00 0.00 0.00 0.00 0.00 0.00 0.00 0.00 0.00 0.00 0.00 0.00 0.00 0.00 0.00 0.00 0.00 0.00 0.00 0.00 0.01 0.06 0.07 0.05 0.00 0.00 0.00 0.00 0.00
0.00 0.00 0.00 0.00 0.00 0.00 0.00 0.00 0.00 0.00 0.00 0.00 0.00 0.00 0.00 0.00 0.00 0.00 0.00 0.00 0.00 0.00 0.00 0.00 0.00 0.00 0.00 0.00 0.00 0.00 0.00 0.00 0.00 0.00 0.00 0.00 0.04 0.06 0.01 0.00 0.00 0.00 0.00
0.00 0.00 0.00 0.00 0.00 0.00 0.00 0.00 0.00 0.00 0.00 0.00 0.00 0.00 0.00 0.00 0.00 0.00 0.00 0.00 0.00 0.00 0.00 0.00 0.01 0.01 0.02 0.02 0.02 0.02 0.01 0.00 0.00 0.00 0.00 0.00 0.01 0.01 0.02 0.01 0.00 0.00 0.00
0.00 0.00 0.00 0.00 0.00 0.00 0.00 0.00 0.00 0.00 0.00 0.00 0.00 0.00 0.00 0.00 0.00 0.00 0.00 0.00 0.00 0.00 0.00 0.00 0.00 0.00 0.00 0.02 0.03 0.04 0.04 0.02 0.01 0.01 0.00 0.02 0.10 0.04 0.05 0.05 0.04 0.02 0.03
0.00 0.00 0.00 0.00 0.00 0.00 0.00 0.00 0.00 0.00 0.00 0.00 0.00 0.00 0.00 0.00 0.00 0.00 0.00 0.00 0.00 0.00 0.00 0.00 0.00 0.00 0.00 0.01 0.02 0.02 0.03 0.02 0.00 0.02 0.01 0.01 0.08 0.07 0.06 0.04 0.04 0.07 0.09
0.00 0.00 0.00 0.00 0.00 0.00 0.00 0.00 0.00 0.00 0.00 0.00 0.00 0.00 0.00 0.00 0.00 0.00 0.00 0.01 0.01 0.01 0.01 0.00 0.00 0.01 0.01 0.03 0.05 0.06 0.08 0.03 0.00 0.00 0.00 0.01 0.04 0.07 0.09 0.07 0.04 0.05 0.10
0.00 0.00 0.00 0.00 0.00 0.00 0.00 0.00 0.00 0.00 0.00 0.00 0.00 0.00 0.00 0.00 0.02 0.04 0.07 0.06 0.04 0.03 0.02 0.01 0.02 0.04 0.05 0.04 0.10 0.14 0.09 0.01 0.00 0.00 0.00 0.02 0.04 0.08 0.07 0.05 0.03 0.03 0.05
0.00 0.00 0.00 0.00 0.00 0.00 0.00 0.00 0.00 0.00 0.00 0.01 0.02 0.06 0.08 0.08 0.06 0.06 0.15 0.10 0.06 0.08 0.07 0.05 0.07 0.08 0.06 0.06 0.15 0.22 0.12 0.05 0.01 0.01 0.01 0.02 0.03 0.07 0.09 0.05 0.04 0.05 0.03
0.00 0.00 0.00 0.00 0.00 0.00 0.00 0.00 0.00 0.00 0.01 0.02 0.06 0.13 0.20 0.18 0.16 0.15 0.28 0.31 0.23 0.15 0.09 0.15 0.18 0.14 0.11 0.10 0.08 0.10 0.12 0.07 0.03 0.02 0.02 0.03 0.04 0.12 0.14 0.08 0.10 0.10 0.03
0.00 0.00 0.00 0.00 0.00 0.00 0.00 0.00 0.00 0.00 0.01 0.02 0.06 0.15 0.21 0.17 0.09 0.13 0.26 0.24 0.18 0.14 0.20 0.18 0.21 0.12 0.05 0.02 0.02 0.01 0.02 0.03 0.02 0.03 0.06 0.09 0.09 0.13 0.13 0.11 0.13 0.12 0.07
0.00 0.00 0.00 0.00 0.00 0.00 0.01 0.02 0.02 0.03 0.02 0.01 0.04 0.20 0.27 0.21 0.16 0.15 0.17 0.15 0.08 0.15 0.27 0.23 0.13 0.05 0.03 0.03 0.03 0.02 0.02 0.04 0.04 0.02 0.01 0.11 0.11 0.11 0.13 0.14 0.17 0.15 0.15
0.00 0.00 0.00 0.00 0.01 0.02 0.05 0.08 0.13 0.14 0.16 0.17 0.16 0.21 0.28 0.28 0.24 0.24 0.26 0.20 0.20 0.25 0.31 0.20 0.09 0.04 0.03 0.01 0.01 0.02 0.04 0.06 0.06 0.04 0.02 0.06 0.10 0.07 0.08 0.10 0.14 0.13 0.17
0.00 0.01 0.01 0.03 0.05 0.12 0.16 0.12 0.11 0.13 0.16 0.18 0.24 0.19 0.18 0.23 0.22 0.28 0.28 0.25 0.30 0.30 0.26 0.17 0.09 0.04 0.02 0.01 0.00 0.00 0.01 0.02 0.01 0.01 0.02 0.02 0.03 0.07 0.09 0.11 0.11 0.09 0.11
0.01 0.02 0.04 0.06 0.10 0.12 0.10 0.05 0.03 0.04 0.09 0.09 0.12 0.10 0.05 0.09 0.11 0.15 0.17 0.18 0.18 0.19 0.20 0.13 0.07 0.04 0.02 0.01 0.01 0.00 0.00 0.01 0.01 0.01 0.01 0.01 0.00 0.04 0.16 0.18 0.16 0.13 0.12
0.05 0.09 0.13 0.13 0.09 0.06 0.05 0.03 0.03 0.03 0.05 0.04 0.03 0.03 0.02 0.01 0.02 0.06 0.08 0.09 0.09 0.11 0.12 0.08 0.05 0.04 0.02 0.02 0.02 0.01 0.01 0.02 0.03 0.02 0.02 0.02 0.01 0.01 0.04 0.09 0.15 0.15 0.14
0.09 0.12 0.14 0.11 0.05 0.02 0.01 0.02 0.01 0.01 0.00 0.00 0.00 0.01 0.00 0.00 0.00 0.01 0.02 0.02 0.01 0.01 0.03 0.04 0.06 0.06 0.04 0.03 0.02 0.02 0.02 0.01 0.02 0.05 0.06 0.03 0.02 0.03 0.03 0.03 0.09 0.13 0.13
0.06 0.10 0.10 0.08 0.03 0.00 0.00 0.00 0.00 0.00 0.00 0.00 0.00 0.00 0.00 0.00 0.00 0.00 0.00 0.00 0.00 0.00 0.00 0.00 0.01 0.02 0.02 0.03 0.03 0.02 0.02 0.02 0.03 0.06 0.06 0.02 0.03 0.10 0.13 0.08 0.08 0.18 0.23
0.06 0.07 0.03 0.02 0.01 0.00 0.00 0.00 0.00 0.00 0.00 0.00 0.00 0.00 0.00 0.00 0.00 0.00 0.00 0.00 0.00 0.00 0.00 0.00 0.00 0.00 0.00 0.00 0.01 0.01 0.00 0.00 0.01 0.03 0.05 0.05 0.06 0.13 0.15 0.12 0.13 0.19 0.18
0.05 0.05 0.02 0.01 0.01 0.00 0.00 0.00 0.00 0.00 0.00 0.00 0.00 0.00 0.00 0.00 0.00 0.00 0.00 0.00 0.00 0.00 0.00 0.00 0.00 0.00 0.00 0.00 0.00 0.00 0.01 0.00 0.00 0.02 0.06 0.08 0.09 0.12 0.09 0.10 0.11 0.12 0.16
0.05 0.06 0.09 0.08 0.02 0.00 0.00 0.00 0.00 0.00 0.00 0.00 0.00 0.00 0.00 0.00 0.00 0.00 0.00 0.00 0.00 0.00 0.00 0.00 0.00 0.01 0.01 0.01 0.00 0.01 0.01 0.01 0.02 0.02 0.05 0.11 0.13 0.12 0.11 0.09 0.07 0.10 0.12
0.10 0.19 0.32 0.23 0.08 0.04 0.02 0.01 0.01 0.00 0.00 0.00 0.00 0.00 0.00 0.00 0.00 0.00 0.00 0.00 0.00 0.00 0.00 0.00 0.00 0.01 0.02 0.02 0.03 0.03 0.03 0.04 0.06 0.07 0.04 0.07 0.12 0.08 0.05 0.04 0.02 0.04 0.05
0.16 0.17 0.19 0.19 0.23 0.18 0.14 0.10 0.09 0.06 0.04 0.02 0.01 0.00 0.00 0.00 0.00 0.00 0.00 0.00 0.00 0.00 0.00 0.00 0.01 0.02 0.03 0.04 0.05 0.06 0.05 0.04 0.04 0.09 0.08 0.08 0.07 0.03 0.04 0.05 0.05 0.05 0.05
MSLP
1008.30 1008.38 1008.65 1009.10 1009.69 1010.31 1010.88 1011.33 1011.65 1011.85 1011.99 1012.15 1012.36 1012.67 1013.06 1013.48 1013.88 1014.21 1014.42 1014.52 1014.53 1014.50 1014.49 1014.52 1014.63 1014.79 1015.00 1015.19 1015.35 1015.45 1015.50 1015.50 1015.48 1015.48 1015.52 1015.60 1015.74 1015.90 1016.09 1016.27 1016.45 1016.62 1016.78
1008.05 1008.28 1008.70 1009.27 1009.93 1010.58 1011.13 1011.53 1011.77 1011.90 1011.98 1012.11 1012.33 1012.68 1013.11 1013.60 1014.05 1014.41 1014.64 1014.74 1014.74 1014.70 1014.67 1014.70 1014.80 1014.96 1015.16 1015.35 1015.49 1015.58 1015.60 1015.59 1015.57 1015.57 1015.62 1015.72 1015.87 1016.05 1016.25 1016.45 1016.63 1016.80 1016.96
1007.81 1008.19 1008.75 1009.45 1010.19 1010.87 1011.41 1011.77 1011.96 1012.03 1012.08 1012.17 1012.39 1012.74 1013.19 1013.68 1014.13 1014.49 1014.71 1014.79 1014.79 1014.75 1014.73 1014.77 1014.89 1015.07 1015.28 1015.46 1015.59 1015.65 1015.65 1015.62 1015.58 1015.58 1015.64 1015.76 1015.93 1016.13 1016.35 1016.55 1016.75 1016.92 1017.09
1007.62 1008.13 1008.81 1009.62 1010.44 1011.16 1011.71 1012.06 1012.22 1012.26 1012.28 1012.36 1012.55 1012.88 1013.30 1013.75 1014.16 1014.47 1014.65 1014.71 1014.70 1014.67 1014.68 1014.76 1014.92 1015.13 1015.35 1015.53 1015.64 1015.68 1015.65 1015.59 1015.53 1015.53 1015.59 1015.73 1015.91 1016.14 1016.37 1016.59 1016.80 1017.00 1017.18
1007.48 1008.08 1008.86 1009.75 1010.64 1011.41 1011.99 1012.34 1012.50 1012.55 1012.56 1012.62 1012.80 1013.09 1013.45 1013.84 1014.17 1014.40 1014.52 1014.54 1014.52 1014.51 1014.57 1014.70 1014.91 1015.16 1015.40 1015.58 1015.67 1015.67 1015.60 1015.51 1015.43 1015.42 1015.48 1015.62 1015.83 1016.07 1016.32 1016.57 1016.80 1017.02 1017.23
1007.36 1008.03 1008.87 1009.82 1010.75 1011.56 1012.17 1012.55 1012.74 1012.80 1012.83 1012.91 1013.07 1013.32 1013.62 1013.92 1014.16 1014.31 1014.36 1014.34 1014.32 1014.33 1014.43 1014.62 1014.88 1015.17 1015.43 1015.60 1015.66 1015.62 1015.51 1015.38 1015.27 1015.24 1015.30 1015.46 1015.68 1015.94 1016.21 1016.47 1016.73 1016.97 1017.22
1007.26 1007.94 1008.82 1009.79 1010.74 1011.57 1012.20 1012.61 1012.84 1012.94 1013.01 1013.11 1013.27 1013.50 1013.75 1013.98 1014.14 1014.21 1014.20 1014.15 1014.11 1014.15 1014.28 1014.52 1014.83 1015.14 1015.40 1015.56 1015.59 1015.51 1015.35 1015.18 1015.04 1014.99 1015.05 1015.21 1015.44 1015.72 1016.01 1016.30 1016.57 1016.85 1017.13
1007.15 1007.83 1008.69 1009.64 1010.58 1011.40 1012.03 1012.47 1012.73 1012.88 1013.00 1013.15 1013.34 1013.56 1013.79 1013.98 1014.08 1014.09 1014.03 1013.96 1013.92 1013.96 1014.12 1014.39 1014.72 1015.04 1015.30 1015.44 1015.43 1015.31 1015.11 1014.90 1014.73 1014.67 1014.72 1014.89 1015.13 1015.42 1015.73 1016.04 1016.33 1016.63 1016.93
1007.05 1007.69 1008.50 1009.41 1010.29 1011.07 1011.68 1012.11 1012.40 1012.59 1012.77 1012.96 1013.19 1013.45 1013.68 1013.85 1013.93 1013.92 1013.84 1013.74 1013.70 1013.75 1013.92 1014.20 1014.52 1014.84 1015.08 1015.19 1015.15 1014.99 1014.76 1014.52 1014.34 1014.26 1014.32 1014.48 1014.74 1015.04 1015.37 1015.68 1015.99 1016.30 1016.62
1006.98 1007.56 1008.31 1009.13 1009.93 1010.63 1011.19 1011.59 1011.87 1012.10 1012.31 1012.56 1012.84 1013.13 1013.40 1013.59 1013.68 1013.67 1013.58 1013.49 1013.44 1013.49 1013.65 1013.91 1014.22 1014.52 1014.73 1014.81 1014.75 1014.57 1014.31 1014.06 1013.87 1013.80 1013.85 1014.02 1014.29 1014.60 1014.94 1015.26 1015.58 1015.89 1016.20
1006.94 1007.47 1008.14 1008.86 1009.56 1010.16 1010.63 1010.98 1011.24 1011.47 1011.70 1011.99 1012.32 1012.66 1012.96 1013.19 1013.31 1013.32 1013.26 1013.17 1013.12 1013.15 1013.29 1013.53 1013.81 1014.07 1014.26 1014.32 1014.24 1014.06 1013.81 1013.56 1013.37 1013.30 1013.35 1013.53 1013.80 1014.12 1014.46 1014.79 1015.11 1015.41 1015.71
1006.94 1007.43 1008.02 1008.65 1009.24 1009.73 1010.11 1010.39 1010.60 1010.81 1011.05 1011.35 1011.71 1012.08 1012.43 1012.70 1012.86 1012.91 1012.87 1012.80 1012.75 1012.76 1012.88 1013.07 1013.31 1013.54 1013.71 1013.76 1013.69 1013.52 1013.28 1013.05 1012.87 1012.81 1012.87 1013.04 1013.31 1013.63 1013.97 1014.30 1014.61 1014.90 1015.19
1006.93 1007.40 1007.94 1008.49 1008.99 1009.39 1009.69 1009.89 1010.05 1010.22 1010.44 1010.74 1011.10 1011.50 1011.88 1012.18 1012.38 1012.47 1012.46 1012.40 1012.35 1012.35 1012.43 1012.59 1012.79 1012.99 1013.14 1013.20 1013.14 1013.00 1012.79 1012.58 1012.42 1012.36 1012.41 1012.57 1012.82 1013.13 1013.47 1013.79 1014.10 1014.38 1014.66
1006.88 1007.34 1007.86 1008.36 1008.80 1009.15 1009.39 1009.54 1009.66 1009.79 1009.98 1010.25 1010.60 1010.99 1011.37 1011.70 1011.93 1012.05 1012.07 1012.03 1011.99 1011.97 1012.03 1012.14 1012.31 1012.49 1012.62 1012.69 1012.65 1012.54 1012.36 1012.17 1012.02 1011.95 1011.98 1012.12 1012.35 1012.63 1012.95 1013.28 1013.58 1013.86 1014.12
1006.71 1007.19 1007.71 1008.21 1008.64 1008.97 1009.20 1009.34 1009.43 1009.53 1009.69 1009.92 1010.23 1010.59 1010.96 1011.29 1011.54 1011.69 1011.74 1011.73 1011.69 1011.67 1011.70 1011.79 1011.92 1012.07 1012.20 1012.26 1012.25 1012.16 1012.01 1011.83 1011.67 1011.58 1011.57 1011.67 1011.85 1012.11 1012.41 1012.73 1013.03 1013.32 1013.58
1006.38 1006.90 1007.45 1007.98 1008.44 1008.81 1009.07 1009.23 1009.34 1009.43 1009.56 1009.75 1010.01 1010.33 1010.67 1010.99 1011.24 1011.41 1011.50 1011.51 1011.50 1011.48 1011.49 1011.55 1011.65 1011.77 1011.88 1011.94 1011.93 1011.85 1011.70 1011.52 1011.34 1011.21 1011.15 1011.19 1011.32 1011.54 1011.81 1012.12 1012.42 1012.72 1012.99
1005.91 1006.47 1007.07 1007.64 1008.17 1008.61 1008.93 1009.16 1009.31 1009.42 1009.53 1009.69 1009.90 1010.16 1010.46 1010.75 1011.01 1011.21 1011.33 1011.38 1011.39 1011.38 1011.39 1011.42 1011.49 1011.58 1011.65 1011.69 1011.67 1011.58 1011.42 1011.22 1011.00 1010.81 1010.69 1010.66 1010.73 1010.89 1011.13 1011.42 1011.73 1012.04 1012.33
1005.41 1005.98 1006.60 1007.23 1007.83 1008.34 1008.76 1009.07 1009.27 1009.41 1009.53 1009.65 1009.81 1010.03 1010.28 1010.55 1010.81 1011.04 1011.20 1011.30 1011.34 1011.36 1011.36 1011.38 1011.41 1011.45 1011.49 1011.49 1011.44 1011.32 1011.13 1010.89 1010.63 1010.38 1010.18 1010.07 1010.07 1010.17 1010.37 1010.64 1010.95 1011.27 1011.57
1004.99 1005.55 1006.17 1006.82 1007.46 1008.05 1008.54 1008.92 1009.19 1009.36 1009.48 1009.58 1009.70 1009.86 1010.07 1010.33 1010.59 1010.85 1011.06 1011.21 1011.31 1011.35 1011.36 1011.36 1011.36 1011.36 1011.34 1011.30 1011.20 1011.05 1010.82 1010.54 1010.22 1009.91 1009.65 1009.47 1009.39 1009.43 1009.57 1009.81 1010.10 1010.42 1010.74
1004.82 1005.32 1005.89 1006.51 1007.16 1007.77 1008.31 1008.74 1009.05 1009.25 1009.36 1009.43 1009.51 1009.63 1009.81 1010.04 1010.32 1010.61 1010.87 1011.08 1011.23 1011.32 1011.35 1011.34 1011.30 1011.26 1011.19 1011.10 1010.96 1010.76 1010.51 1010.19 1009.83 1009.47 1009.15 1008.90 1008.75 1008.72 1008.80 1008.99 1009.25 1009.56 1009.87
1005.02 1005.40 1005.87 1006.42 1007.00 1007.59 1008.13 1008.57 1008.88 1009.08 1009.17 1009.21 1009.25 1009.32 1009.47 1009.69 1009.98 1010.30 1010.61 1010.88 1011.09 1011.22 1011.27 1011.26 1011.21 1011.13 1011.02 1010.89 1010.72 1010.50 1010.22 1009.89 1009.51 1009.12 1008.74 1008.43 1008.21 1008.11 1008.13 1008.25 1008.46 1008.73 1009.03
1005.63 1005.86 1006.19 1006.60 1007.08 1007.58 1008.06 1008.46 1008.75 1008.91 1008.97 1008.97 1008.96 1008.99 1009.10 1009.30 1009.58 1009.93 1010.28 1010.61 1010.87 1011.04 1011.12 1011.12 1011.07 1010.96 1010.84 1010.68 1010.50 1010.28 1010.01 1009.68 1009.30 1008.89 1008.49 1008.13 1007.85 1007.67 1007.61 1007.66 1007.80 1008.01 1008.27
1006.61 1006.68 1006.83 1007.07 1007.40 1007.78 1008.15 1008.48 1008.70 1008.82 1008.83 1008.77 1008.70 1008.68 1008.74 1008.91 1009.19 1009.54 1009.92 1010.28 1010.58 1010.79 1010.90 1010.92 1010.87 1010.77 1010.64 1010.50 1010.33 1010.13 1009.88 1009.57 1009.22 1008.82 1008.40 1008.01 1007.68 1007.43 1007.28 1007.24 1007.31 1007.45 1007.66
1007.83 1007.74 1007.71 1007.78 1007.94 1008.17 1008.43 1008.65 1008.80 1008.85 1008.80 1008.68 1008.56 1008.47 1008.48 1008.60 1008.84 1009.18 1009.56 1009.93 1010.25 1010.48 1010.62 1010.66 1010.63 1010.55 1010.44 1010.32 1010.18 1010.02 1009.81 1009.55 1009.23 1008.86 1008.45 1008.03 1007.65 1007.34 1007.12 1007.00 1006.98 1007.06 1007.21
1009.09 1008.86 1008.69 1008.60 1008.62 1008.72 1008.86 1008.98 1009.05 1009.03 1008.92 1008.75 1008.56 1008.41 1008.35 1008.42 1008.60 1008.89 1009.23 1009.59 1009.90 1010.14 1010.29 1010.35 1010.34 1010.28 1010.21 1010.12 1010.02 1009.91 1009.76 1009.55 1009.28 1008.93 1008.53 1008.11 1007.70 1007.34 1007.05 1006.87 1006.79 1006.81 1006.93
1010.21 1009.90 1009.62 1009.42 1009.33 1009.33 1009.38 1009.43 1009.43 1009.35 1009.19 1008.97 1008.72 1008.51 1008.38 1008.37 1008.48 1008.69 1008.98 1009.28 1009.57 1009.79 1009.93 1010.00 1010.00 1009.97 1009.92 1009.86 1009.81 1009.74 1009.64 1009.48 1009.25 1008.94 1008.56 1008.14 1007.72 1007.33 1007.01 1006.78 1006.67 1006.67 1006.77
Thickness
5850 5843 5836 5832 5829 5827 5824 5821 5817 5812 5808 5803 5800 5796 5794 5791 5788 5786 5784 5781 5779 5777 5775 5773 5772 5770 5767 5765 5763 5760 5758 5757 5756 5755 5754 5753 5752 5752 5751 5749 5749 5748 5746
5851 5841 5835 5830 5827 5824 5822 5819 5815 5810 5806 5803 5800 5797 5794 5791 5788 5784 5782 5779 5777 5776 5774 5773 5771 5770 5768 5765 5763 5761 5758 5757 5756 5755 5754 5752 5751 5751 5750 5749 5749 5749 5747
5850 5840 5833 5829 5825 5822 5819 5816 5813 5810 5805 5802 5799 5796 5793 5791 5788 5784 5781 5778 5776 5774 5773 5772 5771 5769 5767 5765 5763 5761 5759 5757 5756 5756 5755 5755 5753 5751 5749 5748 5747 5746 5745
5849 5841 5835 5828 5823 5819 5816 5813 5810 5808 5804 5801 5798 5795 5793 5791 5787 5784 5781 5778 5776 5773 5772 5771 5771 5769 5767 5765 5762 5761 5759 5758 5757 5757 5758 5758 5755 5752 5749 5747 5745 5744 5743
5849 5841 5833 5827 5822 5818 5814 5810 5808 5805 5802 5799 5797 5795 5792 5790 5787 5784 5781 5779 5777 5775 5772 5770 5769 5767 5766 5764 5762 5761 5759 5758 5758 5758 5760 5760 5758 5754 5750 5747 5744 5743 5741
5848 5840 5831 5826 5821 5817 5813 5809 5806 5804 5801 5798 5795 5793 5791 5788 5786 5784 5781 5779 5777 5776 5774 5771 5768 5766 5764 5763 5761 5760 5760 5759 5758 5760 5763 5763 5759 5755 5752 5748 5745 5743 5741
5850 5841 5829 5824 5819 5814 5811 5808 5805 5802 5799 5796 5794 5791 5789 5787 5785 5783 5781 5778 5777 5775 5774 5771 5769 5766 5764 5763 5761 5760 5759 5759 5759 5762 5766 5765 5761 5756 5752 5749 5747 5744 5743
5852 5840 5828 5822 5818 5814 5810 5806 5803 5800 5797 5794 5792 5790 5787 5785 5784 5782 5780 5778 5776 5774 5772 5771 5769 5767 5766 5764 5762 5762 5760 5760 5762 5764 5766 5767 5763 5758 5754 5751 5748 5745 5743
5855 5842 5830 5824 5819 5814 5810 5806 5802 5798 5795 5792 5790 5788 5786 5784 5782 5780 5779 5777 5775 5773 5771 5770 5769 5767 5765 5764 5763 5762 5761 5761 5761 5764 5766 5768 5764 5761 5757 5754 5751 5748 5745
5854 5842 5832 5826 5819 5813 5807 5803 5799 5795 5791 5788 5786 5784 5782 5781 5780 5779 5777 5776 5774 5772 5770 5769 5768 5766 5765 5763 5763 5762 5761 5759 5760 5763 5767 5769 5766 5762 5758 5755 5753 5751 5748
5849 5842 5835 5829 5821 5816 5810 5804 5797 5792 5788 5785 5782 5780 5779 5779 5779 5779 5778 5776 5773 5771 5769 5768 5767 5766 5764 5763 5762 5761 5760 5759 5761 5764 5768 5769 5766 5762 5759 5756 5754 5753 5751
5840 5840 5837 5832 5823 5818 5814 5806 5796 5791 5787 5782 5782 5780 5777 5777 5778 5780 5779 5776 5773 5770 5768 5767 5766 5763 5762 5762 5762 5760 5758 5758 5760 5765 5768 5768 5765 5762 5759 5756 5754 5752 5752
5838 5838 5835 5832 5824 5819 5814 5805 5798 5793 5790 5784 5781 5779 5776 5775 5774 5774 5774 5772 5768 5766 5765 5766 5763 5760 5760 5760 5759 5760 5759 5758 5759 5763 5764 5764 5762 5760 5758 5756 5754 5752 5752
5838 5835 5833 5830 5823 5818 5813 5805 5799 5794 5789 5786 5783 5778 5774 5771 5769 5768 5767 5767 5764 5763 5762 5761 5760 5759 5758 5758 5757 5757 5757 5757 5759 5760 5760 5760 5758 5757 5756 5754 5754 5753 5752
5836 5831 5831 5826 5818 5812 5806 5801 5796 5790 5786 5782 5778 5774 5770 5767 5764 5763 5762 5760 5759 5758 5756 5755 5755 5755 5753 5752 5750 5751 5751 5751 5750 5751 5753 5753 5753 5752 5753 5753 5752 5752 5752
5833 5828 5827 5819 5813 5806 5799 5792 5788 5785 5780 5775 5772 5769 5766 5762 5759 5757 5755 5754 5753 5752 5751 5752 5752 5750 5748 5747 5746 5745 5745 5745 5744 5743 5746 5748 5749 5749 5750 5751 5751 5751 5751
5830 5826 5820 5813 5807 5799 5792 5787 5783 5779 5776 5771 5767 5764 5762 5758 5755 5752 5750 5749 5749 5747 5747 5747 5747 5746 5744 5743 5742 5740 5740 5740 5741 5741 5744 5746 5747 5747 5747 5749 5750 5750 5749
5828 5821 5814 5810 5802 5794 5787 5782 5780 5777 5773 5768 5764 5760 5758 5755 5751 5748 5746 5746 5745 5744 5743 5742 5741 5740 5739 5738 5737 5738 5739 5739 5739 5740 5742 5744 5745 5746 5747 5746 5747 5747 5746
5819 5814 5807 5801 5795 5789 5784 5779 5776 5772 5766 5763 5761 5758 5754 5751 5749 5746 5744 5744 5743 5742 5740 5740 5739 5736 5734 5733 5733 5735 5737 5737 5739 5740 5741 5743 5744 5744 5744 5745 5744 5744 5744
5812 5805 5797 5790 5788 5784 5779 5774 5771 5767 5763 5761 5757 5753 5750 5747 5746 5743 5741 5741 5741 5738 5738 5738 5736 5734 5732 5730 5730 5732 5733 5735 5737 5739 5740 5742 5743 5743 5742 5742 5741 5740 5739
5803 5793 5786 5779 5778 5778 5773 5766 5761 5758 5757 5755 5753 5749 5746 5743 5742 5740 5737 5736 5735 5734 5733 5732 5731 5729 5727 5728 5725 5725 5729 5733 5736 5738 5741 5742 5743 5744 5742 5740 5738 5736 5735
5787 5780 5778 5772 5770 5770 5768 5762 5758 5753 5751 5750 5748 5746 5744 5741 5739 5737 5735 5731 5730 5729 5728 5726 5725 5723 5721 5721 5717 5714 5715 5721 5729 5737 5740 5741 5742 5742 5741 5739 5736 5734 5733
5773 5769 5770 5766 5762 5764 5763 5760 5755 5747 5742 5742 5741 5742 5742 5739 5736 5734 5730 5728 5726 5724 5723 5723 5722 5719 5716 5716 5715 5710 5707 5709 5716 5725 5730 5734 5736 5736 5736 5735 5733 5731 5731
5761 5762 5762 5755 5753 5756 5756 5753 5747 5739 5735 5737 5737 5739 5739 5737 5734 5732 5729 5726 5723 5722 5720 5720 5722 5718 5715 5711 5711 5711 5709 5708 5704 5706 5715 5723 5728 5729 5730 5731 5731 5730 5729
5744 5743 5742 5734 5737 5742 5745 5744 5740 5736 5734 5735 5736 5735 5733 5733 5732 5730 5727 5724 5721 5719 5718 5717 5715 5713 5711 5709 5706 5705 5703 5703 5703 5698 5700 5708 5715 5722 5726 5729 5730 5730 5730
5731 5730 5728 5720 5719 5721 5725 5728 5729 5727 5726 5725 5725 5724 5727 5728 5729 5729 5726 5722 5718 5716 5715 5713 5711 5709 5708 5706 5704 5701 5699 5697 5697 5696 5696 5699 5702 5712 5722 5726 5728 5728 5729